DMSP 5D-2 F13 DEB, 40576

Orbit data source: Space-Track

DMSP 5D-2 F13 DEB, 40576 is space debris in SSO originally from a launch on Fri, 24 Mar 1995 UTC launched from the Air Force Western Test Range (AFWTR). Debris objects in space refer to the collection of defunct objects orbiting the Earth. Examples of debris include non-operational satellites, rocket bodies, and fragments generated from explosions, collisions, or faulty payload assembly.

Loading next visibility...
Identifier
40576, 1995-015EK
Orbit
SSO
Country
Flag of USUS
Related business
Manufacturer
Unknown
Mission
Spacecraft
Bus & Motor
Unknown
Mass
Unknown
Launch date (UTC)
1995-03-24 (31 years ago)
Launch vehicle
Unknown
Launch site
Air Force Western Test Range (AFWTR)
Object type
Payload
Rocket body
Debris
Shape & HBR
Unknown shape, 0.1 m
Radar Cross Section
Small (<0.1 m²)

Expand to show TLE details & history
Last TLE update: 1 day ago

TLE from 1 day ago
0 DMSP 5D-2 F13 DEB
1 40576U 95015EK  26126.62953975  .00007419  00000-0  16229-2 0  9998
2 40576  98.5533 192.0881 0020140 285.1506  74.7464 14.57917692579420
Epoch: 2026-05-06T15:06Z
TLE epoch observation values (Epoch: 2026-05-06T15:06:32.234Z)
Latitude
-0.00004°
Longitude
100.96651°
Altitude
699.152 km
Speed
7.508 km/s
True Right ascension
12h 48m 21s
True Declination
0° 00' 00"
Sunlit
Object was in full shadow at epoch
Visualization orbit readout
Latitude
Unknown
Longitude
Unknown
Altitude
Unknown
Speed
Unknown
Apparent Right ascension
Unknown
Apparent Declination
Unknown
Sunlit
N/A
Visualization observer readout
Local Sidereal Time
23:47:15
Azimuth
Unknown
Elevation
Unknown
Doppler factor
Unknown
Orbital elements
Apogee altitude
711.255 km
Perigee altitude
682.757 km
Semi-major axis
7,075.143 km
Eccentricity
0.00201
Inclination
98.5533°
RAAN
192.0881°
Arg. of periapsis
285.1506°
True anomaly
74.9692°
Mean anomaly
74.7464°
Eccentric anomaly
74.85779°
Mean motion
3.64704 °/min
Orbital period
98.71 mins
BSTAR
0.0016229

Documentation

Showing up to 5 results
|